When you browse on this site, cookies collect data to enhance your experience and personalize the content and advertising you see.
Visit our Privacy Policy to learn more. By continuing to use the site, you agree to this use of cookies and data.

Meteo pe oră la Sopron

Astăzi, 3 Iulie, Vineri

Timp Temperatura Precipitaţii Vânt Presiune Umiditate
00:00 +21°C° 0 mm 2 m/s 742 mmHg 76%
01:00 +21°C° 0 mm 2 m/s 743 mmHg 77%
02:00 +20°C° 0 mm 3 m/s 743 mmHg 77%
03:00 +20°C° 0 mm 4 m/s 743 mmHg 76%
04:00 +20°C° 0 mm 4 m/s 743 mmHg 76%
05:00 +20°C° 0.3 mm 5 m/s 743 mmHg 78%
06:00 +20°C° 0.3 mm 5 m/s 744 mmHg 80%
07:00 +19°C° 0 mm 5 m/s 744 mmHg 79%
08:00 +19°C° 0.6 mm 6 m/s 744 mmHg 80%
09:00 +19°C° 0.6 mm 6 m/s 744 mmHg 81%
10:00 +19°C° 0.6 mm 6 m/s 745 mmHg 82%
11:00 +20°C° 0.3 mm 5 m/s 745 mmHg 76%
12:00 +21°C° 0.3 mm 4 m/s 745 mmHg 71%
13:00 +23°C° 0.3 mm 4 m/s 745 mmHg 65%
14:00 +25°C° 0 mm 4 m/s 745 mmHg 60%
15:00 +26°C° 0 mm 4 m/s 745 mmHg 55%
16:00 +27°C° 0 mm 4 m/s 745 mmHg 50%
17:00 +25°C° 0 mm 4 m/s 745 mmHg 56%
18:00 +23°C° 0 mm 4 m/s 745 mmHg 61%
19:00 +22°C° 0 mm 4 m/s 745 mmHg 67%
20:00 +21°C° 0 mm 3 m/s 746 mmHg 68%
21:00 +20°C° 0 mm 3 m/s 746 mmHg 70%
22:00 +19°C° 0 mm 3 m/s 746 mmHg 72%
23:00 +18°C° 0 mm 3 m/s 746 mmHg 73%

Mâine, 4 Iulie, Sâmbătă

Timp Temperatura Precipitaţii Vânt Presiune Umiditate
00:00 +18°C° 0 mm 3 m/s 747 mmHg 74%
01:00 +17°C° 0 mm 3 m/s 747 mmHg 75%
02:00 +17°C° 0 mm 3 m/s 747 mmHg 76%
03:00 +17°C° 0 mm 3 m/s 747 mmHg 77%
04:00 +16°C° 0 mm 3 m/s 746 mmHg 78%
05:00 +18°C° 0 mm 4 m/s 747 mmHg 73%
06:00 +19°C° 0 mm 4 m/s 747 mmHg 68%
07:00 +21°C° 0 mm 4 m/s 747 mmHg 64%
08:00 +22°C° 0 mm 5 m/s 747 mmHg 59%
09:00 +23°C° 0 mm 5 m/s 747 mmHg 54%
10:00 +25°C° 0 mm 5 m/s 747 mmHg 49%
11:00 +26°C° 0 mm 5 m/s 747 mmHg 48%
12:00 +27°C° 0 mm 5 m/s 746 mmHg 46%
13:00 +27°C° 0 mm 5 m/s 746 mmHg 45%
14:00 +28°C° 0 mm 5 m/s 746 mmHg 45%
15:00 +28°C° 0 mm 4 m/s 746 mmHg 45%
16:00 +28°C° 0 mm 4 m/s 746 mmHg 46%
17:00 +26°C° 0 mm 4 m/s 746 mmHg 52%
18:00 +25°C° 0 mm 3 m/s 746 mmHg 58%
19:00 +22°C° 0 mm 3 m/s 746 mmHg 65%
20:00 +21°C° 0 mm 3 m/s 746 mmHg 65%
21:00 +20°C° 0 mm 3 m/s 746 mmHg 65%
22:00 +19°C° 0 mm 3 m/s 747 mmHg 65%
23:00 +19°C° 0 mm 3 m/s 747 mmHg 66%

Poimâine, 5 Iulie, Duminică

Timp Temperatura Precipitaţii Vânt Presiune Umiditate
00:00 +19°C° 0 mm 3 m/s 747 mmHg 67%
01:00 +18°C° 0 mm 3 m/s 747 mmHg 69%
02:00 +18°C° 0 mm 3 m/s 747 mmHg 71%
03:00 +18°C° 0 mm 3 m/s 747 mmHg 74%
04:00 +18°C° 0 mm 3 m/s 747 mmHg 76%
05:00 +19°C° 0 mm 3 m/s 747 mmHg 72%
06:00 +21°C° 0 mm 3 m/s 747 mmHg 69%
07:00 +22°C° 0 mm 4 m/s 747 mmHg 65%
08:00 +25°C° 0 mm 4 m/s 747 mmHg 60%
09:00 +26°C° 0 mm 4 m/s 747 mmHg 55%
10:00 +28°C° 0 mm 4 m/s 747 mmHg 50%
11:00 +28°C° 0 mm 4 m/s 747 mmHg 49%
12:00 +29°C° 0 mm 3 m/s 746 mmHg 47%
13:00 +30°C° 0 mm 3 m/s 746 mmHg 46%
14:00 +30°C° 0 mm 3 m/s 745 mmHg 46%
15:00 +30°C° 0 mm 2 m/s 745 mmHg 46%
16:00 +30°C° 0 mm 2 m/s 745 mmHg 46%
17:00 +29°C° 0 mm 2 m/s 745 mmHg 52%
18:00 +28°C° 0 mm 1 m/s 745 mmHg 58%
19:00 +26°C° 0 mm 1 m/s 745 mmHg 63%
20:00 +25°C° 0 mm 1 m/s 745 mmHg 67%
21:00 +24°C° 0 mm 1 m/s 745 mmHg 70%
22:00 +22°C° 0 mm 1 m/s 745 mmHg 74%
23:00 +22°C° 0 mm 1 m/s 745 mmHg 75%

6 Iulie, Luni

Timp Temperatura Precipitaţii Vânt Presiune Umiditate
00:00 +22°C° 0 mm 1 m/s 744 mmHg 76%
01:00 +21°C° 0 mm 1 m/s 744 mmHg 76%
02:00 +21°C° 0 mm 1 m/s 744 mmHg 76%
03:00 +21°C° 0 mm 1 m/s 744 mmHg 76%
04:00 +21°C° 0 mm 1 m/s 743 mmHg 77%
05:00 +22°C° 0 mm 1 m/s 744 mmHg 72%
06:00 +24°C° 0 mm 1 m/s 744 mmHg 68%
07:00 +25°C° 0 mm 1 m/s 744 mmHg 64%
08:00 +27°C° 0 mm 2 m/s 744 mmHg 60%
09:00 +28°C° 0 mm 3 m/s 744 mmHg 56%
10:00 +29°C° 0 mm 4 m/s 743 mmHg 52%
11:00 +30°C° 0 mm 4 m/s 743 mmHg 50%
12:00 +30°C° 0 mm 5 m/s 743 mmHg 49%
13:00 +32°C° 0 mm 5 m/s 742 mmHg 47%
14:00 +30°C° 0 mm 4 m/s 742 mmHg 50%
15:00 +30°C° 0 mm 4 m/s 742 mmHg 52%
16:00 +29°C° 0 mm 4 m/s 742 mmHg 55%
17:00 +27°C° 0.1 mm 4 m/s 742 mmHg 59%
18:00 +26°C° 0.1 mm 5 m/s 742 mmHg 64%
19:00 +23°C° 0.1 mm 5 m/s 743 mmHg 68%
20:00 +22°C° 0.2 mm 5 m/s 743 mmHg 68%
21:00 +22°C° 0.2 mm 5 m/s 744 mmHg 69%
22:00 +21°C° 0.2 mm 6 m/s 744 mmHg 69%
23:00 +20°C° 0.2 mm 6 m/s 745 mmHg 67%

7 Iulie, Marţi

Timp Temperatura Precipitaţii Vânt Presiune Umiditate
00:00 +19°C° 0.2 mm 6 m/s 745 mmHg 65%
01:00 +17°C° 0.2 mm 6 m/s 745 mmHg 63%
02:00 +17°C° 0 mm 6 m/s 745 mmHg 63%
03:00 +17°C° 0 mm 6 m/s 746 mmHg 62%
04:00 +16°C° 0 mm 6 m/s 746 mmHg 61%
05:00 +16°C° 0.1 mm 6 m/s 746 mmHg 65%
06:00 +15°C° 0.1 mm 5 m/s 746 mmHg 69%
07:00 +15°C° 0.1 mm 5 m/s 747 mmHg 73%
08:00 +15°C° 0 mm 4 m/s 747 mmHg 73%
09:00 +15°C° 0 mm 4 m/s 747 mmHg 73%
10:00 +15°C° 0 mm 4 m/s 747 mmHg 73%
11:00 +15°C° 0 mm 4 m/s 747 mmHg 72%
12:00 +17°C° 0 mm 3 m/s 747 mmHg 72%
13:00 +17°C° 0 mm 3 m/s 747 mmHg 71%
14:00 +18°C° 0 mm 3 m/s 747 mmHg 68%
15:00 +19°C° 0 mm 3 m/s 746 mmHg 64%
16:00 +20°C° 0 mm 3 m/s 746 mmHg 60%
17:00 +19°C° 0 mm 3 m/s 746 mmHg 61%
18:00 +19°C° 0 mm 3 m/s 747 mmHg 63%
19:00 +19°C° 0 mm 2 m/s 747 mmHg 64%
20:00 +18°C° 0 mm 2 m/s 747 mmHg 66%
21:00 +17°C° 0 mm 2 m/s 747 mmHg 68%
22:00 +16°C° 0 mm 2 m/s 748 mmHg 70%
23:00 +15°C° 0 mm 2 m/s 748 mmHg 73%

8 Iulie, Miercuri

Timp Temperatura Precipitaţii Vânt Presiune Umiditate
00:00 +15°C° 0 mm 2 m/s 748 mmHg 75%
01:00 +14°C° 0 mm 2 m/s 748 mmHg 78%
02:00 +14°C° 0 mm 2 m/s 749 mmHg 79%
03:00 +14°C° 0 mm 2 m/s 749 mmHg 81%
04:00 +13°C° 0 mm 2 m/s 749 mmHg 82%
05:00 +14°C° 0 mm 3 m/s 749 mmHg 76%
06:00 +17°C° 0 mm 3 m/s 750 mmHg 70%
07:00 +18°C° 0 mm 4 m/s 750 mmHg 64%
08:00 +20°C° 0 mm 4 m/s 750 mmHg 58%
09:00 +21°C° 0 mm 4 m/s 750 mmHg 52%
10:00 +22°C° 0 mm 4 m/s 750 mmHg 47%
11:00 +24°C° 0 mm 3 m/s 750 mmHg 44%
12:00 +25°C° 0 mm 3 m/s 750 mmHg 42%
13:00 +25°C° 0 mm 3 m/s 749 mmHg 39%
14:00 +25°C° 0 mm 3 m/s 749 mmHg 40%
15:00 +25°C° 0 mm 3 m/s 749 mmHg 41%
16:00 +25°C° 0 mm 3 m/s 749 mmHg 42%
17:00 +24°C° 0 mm 3 m/s 749 mmHg 48%
18:00 +21°C° 0 mm 2 m/s 749 mmHg 54%
19:00 +21°C° 0 mm 1 m/s 749 mmHg 61%
20:00 +20°C° 0 mm 1 m/s 749 mmHg 64%
21:00 +18°C° 0 mm 1 m/s 749 mmHg 67%
22:00 +16°C° 0 mm 1 m/s 749 mmHg 70%
23:00 +15°C° 0 mm 1 m/s 749 mmHg 71%
Arată mai mult